AXY6PY TFFR-KMIA

Flight info

Callsign AXY6PY
Flight time 3h 0m
Altitude 38000
Route GORET2F GORET R888 MODUX/N0466F400 Y260 ACONY Y308 MADIZ VIICE2
Aircraft A343/M-SDE2E3FGHIJ4J5M1RWXY/LB1D1

Departure

Time 2026-04-26 09:22
Airport Maryse Condé International Airport (TFFR)

Arrival

Time 2026-04-26 12:23
Airport Miami International Airport (KMIA)
Time Latitude Longitude Altitude Speed Heading
2026-04-26 08:39 16.26845 -61.52348 25 ft 0 kts 12°
2026-04-26 09:04 16.26826 -61.52351 31 ft 4 kts
2026-04-26 09:04 16.26799 -61.52353 31 ft 4 kts 356°
2026-04-26 09:04 16.26773 -61.52349 31 ft 4 kts 340°
2026-04-26 09:04 16.26751 -61.52336 31 ft 4 kts 301°
2026-04-26 09:05 16.26746 -61.52323 31 ft 1 kts 280°
2026-04-26 09:05 16.26745 -61.52321 31 ft 0 kts 280°
2026-04-26 09:11 16.26746 -61.52324 25 ft 1 kts 280°
2026-04-26 09:12 16.26749 -61.52343 30 ft 4 kts 280°
2026-04-26 09:12 16.26756 -61.52381 28 ft 7 kts 280°
2026-04-26 09:12 16.26767 -61.52437 28 ft 9 kts 282°
2026-04-26 09:12 16.26781 -61.52509 29 ft 11 kts 281°
2026-04-26 09:13 16.26797 -61.52597 29 ft 13 kts 281°
2026-04-26 09:13 16.26816 -61.52696 27 ft 15 kts 281°
2026-04-26 09:13 16.26837 -61.52807 27 ft 14 kts 281°
2026-04-26 09:13 16.26844 -61.52899 25 ft 12 kts 252°
2026-04-26 09:14 16.26773 -61.52940 28 ft 13 kts 194°
2026-04-26 09:14 16.26681 -61.52963 29 ft 14 kts 192°
2026-04-26 09:14 16.26657 -61.52967 30 ft 0 kts 189°
2026-04-26 09:17 16.26651 -61.52968 29 ft 5 kts 188°
2026-04-26 09:18 16.26590 -61.52978 28 ft 11 kts 188°
2026-04-26 09:18 16.26520 -61.53012 28 ft 12 kts 233°
2026-04-26 09:18 16.26514 -61.53093 25 ft 12 kts 277°
2026-04-26 09:18 16.26530 -61.53188 27 ft 16 kts 281°
2026-04-26 09:19 16.26557 -61.53327 23 ft 22 kts 281°
2026-04-26 09:19 16.26588 -61.53498 26 ft 25 kts 281°
2026-04-26 09:19 16.26623 -61.53689 26 ft 29 kts 281°
2026-04-26 09:19 16.26661 -61.53895 25 ft 29 kts 281°
2026-04-26 09:20 16.26699 -61.54098 22 ft 28 kts 281°
2026-04-26 09:20 16.26730 -61.54266 19 ft 18 kts 281°
2026-04-26 09:20 16.26710 -61.54380 17 ft 13 kts 248°
2026-04-26 09:20 16.26717 -61.54407 17 ft 1 kts 320°
2026-04-26 09:21 16.26722 -61.54409 17 ft 2 kts 332°
2026-04-26 09:21 16.26742 -61.54407 18 ft 2 kts 23°
2026-04-26 09:21 16.26749 -61.54390 18 ft 4 kts 75°
2026-04-26 09:21 16.26746 -61.54357 20 ft 7 kts 97°
2026-04-26 09:22 16.26704 -61.54122 21 ft 76 kts 101°
2026-04-26 09:22 16.26545 -61.53272 29 ft 161 kts 102°
2026-04-26 09:22 16.26356 -61.52045 825 ft 174 kts 99°
2026-04-26 09:22 16.26158 -61.50753 1691 ft 193 kts 102°
2026-04-26 09:23 16.25863 -61.49282 2492 ft 226 kts 103°
2026-04-26 09:23 16.25527 -61.47612 3568 ft 246 kts 102°
2026-04-26 09:23 16.25476 -61.45821 4681 ft 255 kts 79°
2026-04-26 09:23 16.26366 -61.44188 5585 ft 270 kts 44°
2026-04-26 09:24 16.28057 -61.43289 6512 ft 282 kts 10°
2026-04-26 09:24 16.30013 -61.43440 7475 ft 286 kts 343°
2026-04-26 09:24 16.31930 -61.44052 8520 ft 289 kts 342°
2026-04-26 09:24 16.33880 -61.44615 9572 ft 292 kts 345°
2026-04-26 09:25 16.35891 -61.45102 10417 ft 303 kts 346°
2026-04-26 09:25 16.38035 -61.45557 10817 ft 327 kts 348°
2026-04-26 09:25 16.40326 -61.46000 11166 ft 349 kts 348°
2026-04-26 09:25 16.42761 -61.46448 11722 ft 361 kts 348°
2026-04-26 09:26 16.45230 -61.47026 12462 ft 366 kts 342°
2026-04-26 09:26 16.47614 -61.47979 13254 ft 369 kts 332°
2026-04-26 09:26 16.49826 -61.49355 14021 ft 371 kts 322°
2026-04-26 09:26 16.51787 -61.51123 14716 ft 374 kts 312°
2026-04-26 09:27 16.53435 -61.53240 15416 ft 377 kts 302°
2026-04-26 09:27 16.54704 -61.55634 16135 ft 380 kts 292°
2026-04-26 09:27 16.55558 -61.58247 16875 ft 382 kts 282°
2026-04-26 09:27 16.55956 -61.60982 17631 ft 384 kts 272°
2026-04-26 09:28 16.55882 -61.63769 18370 ft 386 kts 262°
2026-04-26 09:28 16.55397 -61.66496 18990 ft 389 kts 257°
2026-04-26 09:28 16.54935 -61.69287 19623 ft 393 kts 262°
2026-04-26 09:28 16.54837 -61.72149 20263 ft 398 kts 269°
2026-04-26 09:29 16.54916 -61.75052 20889 ft 402 kts 270°
2026-04-26 09:29 16.55024 -61.77969 21498 ft 405 kts 270°
2026-04-26 09:29 16.55136 -61.80918 22099 ft 409 kts 270°
2026-04-26 09:29 16.55249 -61.83893 22695 ft 412 kts 270°
2026-04-26 09:30 16.55362 -61.86889 23278 ft 416 kts 270°
2026-04-26 09:30 16.55475 -61.89912 23802 ft 419 kts 270°
2026-04-26 09:30 16.55588 -61.92963 24295 ft 422 kts 270°
2026-04-26 09:30 16.55702 -61.96026 24820 ft 423 kts 269°
2026-04-26 09:31 16.55814 -61.99060 25313 ft 426 kts 269°
2026-04-26 09:31 16.55927 -62.02156 25804 ft 428 kts 269°
2026-04-26 09:31 16.56041 -62.05264 26284 ft 431 kts 269°
2026-04-26 09:31 16.56154 -62.08392 26762 ft 433 kts 269°
2026-04-26 09:32 16.56268 -62.11538 27217 ft 436 kts 269°
2026-04-26 09:32 16.56496 -62.14703 27661 ft 440 kts 274°
2026-04-26 09:32 16.57129 -62.17850 28104 ft 447 kts 283°
2026-04-26 09:32 16.58236 -62.20906 28534 ft 453 kts 290°
2026-04-26 09:33 16.59572 -62.23896 28940 ft 457 kts 292°
2026-04-26 09:33 16.60990 -62.26874 29370 ft 460 kts 293°
2026-04-26 09:33 16.62443 -62.29852 29751 ft 462 kts 293°
2026-04-26 09:33 16.63911 -62.32848 30118 ft 465 kts 293°
2026-04-26 09:34 16.65381 -62.35866 30447 ft 467 kts 293°
2026-04-26 09:34 16.66848 -62.38899 30789 ft 469 kts 292°
2026-04-26 09:34 16.68310 -62.41941 31129 ft 470 kts 292°
2026-04-26 09:34 16.69752 -62.44956 31504 ft 470 kts 292°
2026-04-26 09:35 16.71205 -62.48000 31998 ft 467 kts 292°
2026-04-26 09:35 16.72647 -62.51024 32500 ft 464 kts 292°
2026-04-26 09:35 16.74080 -62.54031 33002 ft 461 kts 292°
2026-04-26 09:35 16.75503 -62.57020 33517 ft 458 kts 292°
2026-04-26 09:36 16.76915 -62.59986 33991 ft 455 kts 292°
2026-04-26 09:36 16.78320 -62.62938 34374 ft 454 kts 292°
2026-04-26 09:36 16.79721 -62.65886 34710 ft 453 kts 292°
2026-04-26 09:36 16.81118 -62.68826 35053 ft 452 kts 292°
2026-04-26 09:37 16.82514 -62.71767 35350 ft 452 kts 292°
2026-04-26 09:37 16.83909 -62.74707 35659 ft 451 kts 292°
2026-04-26 09:37 16.85302 -62.77640 36009 ft 450 kts 292°
2026-04-26 09:37 16.86691 -62.80567 36348 ft 449 kts 292°
2026-04-26 09:38 16.88074 -62.83483 36670 ft 448 kts 292°
2026-04-26 09:38 16.89455 -62.86395 36957 ft 447 kts 292°
2026-04-26 09:38 16.90834 -62.89306 37253 ft 447 kts 292°
2026-04-26 09:38 16.92211 -62.92213 37574 ft 446 kts 292°
2026-04-26 09:39 16.93583 -62.95111 37873 ft 445 kts 292°
2026-04-26 09:39 16.96342 -63.00947 37973 ft 447 kts 292°
2026-04-26 09:40 16.98932 -63.06786 37974 ft 445 kts 290°
2026-04-26 09:40 17.01441 -63.12691 37972 ft 445 kts 290°
2026-04-26 09:41 17.03971 -63.18606 37972 ft 447 kts 290°
2026-04-26 09:41 17.06532 -63.24541 37972 ft 448 kts 290°
2026-04-26 09:42 17.09102 -63.30479 37970 ft 448 kts 290°
2026-04-26 09:42 17.11670 -63.36416 37971 ft 448 kts 290°
2026-04-26 09:43 17.14218 -63.42315 37974 ft 449 kts 290°
2026-04-26 09:43 17.16816 -63.48347 37968 ft 460 kts 289°
2026-04-26 09:44 17.19468 -63.54511 37970 ft 467 kts 289°
2026-04-26 09:44 17.22140 -63.60707 37970 ft 466 kts 289°
2026-04-26 09:45 17.24797 -63.66876 37971 ft 465 kts 289°
2026-04-26 09:45 17.27451 -63.73053 37976 ft 464 kts 289°
2026-04-26 09:46 17.30089 -63.79194 37973 ft 461 kts 289°
2026-04-26 09:46 17.32691 -63.85265 37973 ft 459 kts 289°
2026-04-26 09:47 17.35302 -63.91362 37976 ft 459 kts 289°
2026-04-26 09:47 17.37914 -63.97467 37975 ft 459 kts 289°
2026-04-26 09:48 17.40521 -64.03568 37975 ft 459 kts 289°
2026-04-26 09:48 17.43127 -64.09669 37960 ft 459 kts 289°
2026-04-26 09:49 17.45727 -64.15762 37963 ft 458 kts 289°
2026-04-26 09:49 17.47260 -64.19358 37960 ft 458 kts 289°
2026-04-26 09:50 17.48599 -64.22500 37963 ft 458 kts 289°
2026-04-26 09:50 17.51194 -64.28596 37968 ft 458 kts 289°
2026-04-26 09:51 17.53788 -64.34696 37982 ft 458 kts 289°
2026-04-26 09:51 17.55940 -64.39759 37969 ft 458 kts 289°
2026-04-26 09:52 17.58932 -64.45683 37969 ft 464 kts 297°
2026-04-26 09:52 17.64445 -64.54064 37987 ft 466 kts 299°
2026-04-26 09:53 17.68203 -64.59612 37985 ft 466 kts 299°
2026-04-26 09:53 17.71950 -64.65166 37984 ft 466 kts 299°
2026-04-26 09:54 17.75681 -64.70721 37988 ft 465 kts 298°
2026-04-26 09:54 17.79403 -64.76278 37992 ft 465 kts 298°
2026-04-26 09:55 17.83122 -64.81836 37989 ft 465 kts 298°
2026-04-26 09:55 17.86816 -64.87358 37985 ft 465 kts 298°
2026-04-26 09:56 17.90536 -64.92924 37982 ft 465 kts 298°
2026-04-26 09:56 17.94250 -64.98486 37980 ft 465 kts 298°
2026-04-26 09:57 17.97967 -65.04055 37975 ft 464 kts 298°
2026-04-26 09:57 18.01671 -65.09610 37972 ft 464 kts 298°
2026-04-26 09:58 18.05375 -65.15171 37977 ft 464 kts 298°
2026-04-26 09:58 18.09051 -65.20695 37972 ft 464 kts 298°
2026-04-26 09:59 18.12755 -65.26265 37974 ft 464 kts 298°
2026-04-26 09:59 18.16446 -65.31817 37976 ft 463 kts 298°
2026-04-26 10:00 18.20135 -65.37376 37973 ft 463 kts 298°
2026-04-26 10:00 18.23816 -65.42926 37974 ft 463 kts 298°
2026-04-26 10:01 18.27504 -65.48491 37971 ft 463 kts 298°
2026-04-26 10:01 18.31161 -65.54014 37971 ft 463 kts 298°
2026-04-26 10:02 18.34844 -65.59581 37972 ft 463 kts 298°
2026-04-26 10:02 18.38520 -65.65142 37973 ft 462 kts 298°
2026-04-26 10:03 18.42191 -65.70699 37974 ft 461 kts 298°
2026-04-26 10:03 18.45852 -65.76247 37978 ft 461 kts 298°
2026-04-26 10:04 18.49508 -65.81794 38003 ft 461 kts 298°
2026-04-26 10:04 18.53158 -65.87333 37986 ft 459 kts 298°
2026-04-26 10:05 18.56795 -65.92858 37982 ft 458 kts 298°
2026-04-26 10:05 18.60399 -65.98340 37983 ft 457 kts 297°
2026-04-26 10:06 18.64021 -66.03854 37975 ft 457 kts 297°
2026-04-26 10:06 18.67640 -66.09367 37971 ft 457 kts 297°
2026-04-26 10:07 18.71258 -66.14885 37972 ft 457 kts 297°
2026-04-26 10:07 18.74876 -66.20405 37968 ft 457 kts 297°
2026-04-26 10:08 18.78488 -66.25921 37974 ft 457 kts 297°
2026-04-26 10:08 18.82094 -66.31434 37970 ft 456 kts 297°
2026-04-26 10:09 18.85673 -66.36910 37974 ft 456 kts 297°
2026-04-26 10:09 18.89276 -66.42427 37974 ft 456 kts 297°
2026-04-26 10:10 18.92871 -66.47936 37965 ft 454 kts 297°
2026-04-26 10:10 18.96442 -66.53420 37966 ft 452 kts 297°
2026-04-26 10:11 19.00001 -66.58915 37969 ft 452 kts 297°
2026-04-26 10:11 19.03524 -66.64355 37965 ft 450 kts 297°
2026-04-26 10:12 19.07058 -66.69813 37965 ft 450 kts 297°
2026-04-26 10:12 19.10594 -66.75278 37964 ft 450 kts 297°
2026-04-26 10:13 19.14131 -66.80750 37959 ft 450 kts 297°
2026-04-26 10:13 19.17666 -66.86223 37961 ft 450 kts 297°
2026-04-26 10:14 19.21196 -66.91693 37961 ft 450 kts 297°
2026-04-26 10:14 19.24726 -66.97167 37961 ft 450 kts 297°
2026-04-26 10:15 19.28250 -67.02637 37958 ft 450 kts 297°
2026-04-26 10:15 19.31775 -67.08112 37963 ft 449 kts 297°
2026-04-26 10:16 19.35260 -67.13531 37956 ft 448 kts 297°
2026-04-26 10:16 19.38766 -67.18989 37961 ft 448 kts 297°
2026-04-26 10:17 19.42274 -67.24453 37956 ft 448 kts 297°
2026-04-26 10:17 19.45775 -67.29912 37955 ft 447 kts 297°
2026-04-26 10:18 19.49268 -67.35363 37952 ft 447 kts 297°
2026-04-26 10:18 19.52761 -67.40820 37952 ft 447 kts 297°
2026-04-26 10:19 19.56252 -67.46279 37952 ft 447 kts 297°
2026-04-26 10:19 19.59744 -67.51743 37952 ft 447 kts 297°
2026-04-26 10:20 19.62643 -67.56283 37952 ft 447 kts 296°
2026-04-26 10:20 19.66691 -67.62628 37949 ft 447 kts 296°
2026-04-26 10:21 19.70173 -67.68091 37947 ft 446 kts 296°
2026-04-26 10:21 19.73652 -67.73554 37947 ft 446 kts 296°
2026-04-26 10:22 19.77126 -67.79016 37947 ft 446 kts 296°
2026-04-26 10:22 19.80599 -67.84481 37947 ft 446 kts 296°
2026-04-26 10:23 19.84066 -67.89941 37944 ft 446 kts 296°
2026-04-26 10:23 19.87538 -67.95414 37944 ft 446 kts 296°
2026-04-26 10:24 19.90981 -68.00845 37944 ft 446 kts 296°
2026-04-26 10:24 19.94441 -68.06310 37944 ft 446 kts 296°
2026-04-26 10:25 19.97903 -68.11781 37947 ft 446 kts 296°
2026-04-26 10:25 20.01367 -68.17262 37947 ft 446 kts 296°
2026-04-26 10:26 20.04825 -68.22737 37945 ft 446 kts 296°
2026-04-26 10:26 20.08282 -68.28218 37944 ft 446 kts 296°
2026-04-26 10:27 20.11736 -68.33696 37947 ft 446 kts 296°
2026-04-26 10:27 20.15192 -68.39184 37947 ft 446 kts 296°
2026-04-26 10:28 20.18646 -68.44674 37944 ft 446 kts 296°
2026-04-26 10:28 20.22075 -68.50129 37944 ft 446 kts 296°
2026-04-26 10:29 20.25522 -68.55618 37948 ft 446 kts 296°
2026-04-26 10:29 20.28749 -68.61226 37946 ft 442 kts 292°
2026-04-26 10:30 20.31762 -68.66932 37947 ft 442 kts 292°
2026-04-26 10:30 20.34794 -68.72629 37947 ft 442 kts 292°
2026-04-26 10:31 20.37867 -68.78310 37944 ft 442 kts 293°
2026-04-26 10:31 20.40956 -68.83985 37944 ft 442 kts 293°
2026-04-26 10:32 20.44044 -68.89660 37947 ft 442 kts 292°
2026-04-26 10:32 20.47109 -68.95302 37959 ft 442 kts 292°
2026-04-26 10:33 20.50182 -69.00968 37944 ft 440 kts 292°
2026-04-26 10:33 20.53246 -69.06622 37944 ft 440 kts 292°
2026-04-26 10:34 20.56302 -69.12271 37946 ft 440 kts 292°
2026-04-26 10:34 20.59358 -69.17924 37946 ft 440 kts 292°
2026-04-26 10:35 20.62413 -69.23580 37952 ft 439 kts 292°
2026-04-26 10:35 20.65459 -69.29224 37950 ft 438 kts 292°
2026-04-26 10:36 20.68502 -69.34870 37932 ft 438 kts 292°
2026-04-26 10:36 20.71523 -69.40479 37936 ft 438 kts 292°
2026-04-26 10:37 20.74563 -69.46131 37948 ft 438 kts 292°
2026-04-26 10:37 20.77600 -69.51781 37948 ft 438 kts 292°
2026-04-26 10:38 20.80636 -69.57436 37958 ft 438 kts 292°
2026-04-26 10:38 20.83154 -69.62131 37947 ft 438 kts 292°
2026-04-26 10:39 20.86187 -69.67790 37941 ft 438 kts 292°
2026-04-26 10:39 20.89215 -69.73445 37954 ft 438 kts 292°
2026-04-26 10:40 20.92238 -69.79097 37944 ft 437 kts 292°
2026-04-26 10:40 20.95250 -69.84735 37950 ft 437 kts 292°
2026-04-26 10:41 20.98262 -69.90379 37943 ft 436 kts 292°
2026-04-26 10:41 21.01265 -69.96012 37948 ft 436 kts 292°
2026-04-26 10:42 21.04268 -70.01651 37945 ft 436 kts 292°
2026-04-26 10:42 21.07270 -70.07295 37948 ft 436 kts 292°
2026-04-26 10:43 21.10270 -70.12939 37947 ft 436 kts 292°
2026-04-26 10:43 21.13268 -70.18585 37950 ft 436 kts 292°
2026-04-26 10:44 21.16264 -70.24232 37947 ft 435 kts 291°
2026-04-26 10:44 21.19249 -70.29864 37946 ft 434 kts 291°
2026-04-26 10:45 21.22229 -70.35495 37949 ft 434 kts 291°
2026-04-26 10:45 21.25187 -70.41090 37949 ft 434 kts 291°
2026-04-26 10:46 21.28166 -70.46730 37946 ft 434 kts 291°
2026-04-26 10:46 21.31134 -70.52351 37948 ft 432 kts 291°
2026-04-26 10:47 21.34082 -70.57940 37949 ft 429 kts 291°
2026-04-26 10:47 21.37008 -70.63495 37949 ft 427 kts 291°
2026-04-26 10:48 21.39925 -70.69045 37948 ft 427 kts 291°
2026-04-26 10:48 21.42822 -70.74560 37949 ft 427 kts 291°
2026-04-26 10:49 21.45737 -70.80114 37948 ft 427 kts 291°
2026-04-26 10:49 21.48651 -70.85670 37948 ft 427 kts 291°
2026-04-26 10:50 21.51069 -70.90286 37953 ft 426 kts 291°
2026-04-26 10:50 21.54461 -70.96762 37954 ft 424 kts 291°
2026-04-26 10:51 21.58783 -71.05056 37949 ft 423 kts 290°
2026-04-26 10:52 21.61502 -71.10611 37952 ft 422 kts 289°
2026-04-26 10:52 21.64193 -71.16223 37951 ft 422 kts 289°
2026-04-26 10:53 21.66898 -71.21828 37951 ft 422 kts 289°
2026-04-26 10:53 21.69615 -71.27428 37974 ft 422 kts 289°
2026-04-26 10:54 21.73676 -71.35784 37954 ft 419 kts 289°
2026-04-26 10:54 21.76367 -71.41336 37957 ft 419 kts 289°
2026-04-26 10:55 21.79058 -71.46897 37952 ft 419 kts 289°
2026-04-26 10:55 21.81747 -71.52457 37953 ft 419 kts 289°
2026-04-26 10:56 21.84436 -71.58021 37944 ft 419 kts 289°
2026-04-26 10:56 21.87135 -71.63619 37951 ft 422 kts 289°
2026-04-26 10:57 21.89827 -71.69204 37952 ft 423 kts 289°
2026-04-26 10:57 21.92541 -71.74835 37953 ft 423 kts 289°
2026-04-26 10:58 21.95249 -71.80461 37956 ft 423 kts 289°
2026-04-26 10:58 21.97953 -71.86089 37950 ft 423 kts 289°
2026-04-26 10:59 22.00657 -71.91720 37967 ft 423 kts 289°
2026-04-26 10:59 22.03358 -71.97352 37952 ft 422 kts 289°
2026-04-26 11:00 22.06036 -72.02943 37952 ft 422 kts 289°
2026-04-26 11:00 22.08729 -72.08571 37951 ft 422 kts 289°
2026-04-26 11:01 22.11420 -72.14203 37959 ft 421 kts 289°
2026-04-26 11:01 22.14099 -72.19813 37958 ft 421 kts 289°
2026-04-26 11:02 22.16776 -72.25426 37958 ft 420 kts 289°
2026-04-26 11:02 22.19450 -72.31041 37958 ft 420 kts 289°
2026-04-26 11:03 22.22104 -72.36618 37960 ft 420 kts 289°
2026-04-26 11:03 22.24772 -72.42232 37958 ft 421 kts 289°
2026-04-26 11:04 22.27444 -72.47859 37957 ft 420 kts 289°
2026-04-26 11:04 22.30109 -72.53477 37957 ft 420 kts 289°
2026-04-26 11:05 22.32773 -72.59101 37958 ft 420 kts 289°
2026-04-26 11:05 22.35436 -72.64730 37957 ft 421 kts 289°
2026-04-26 11:06 22.37648 -72.69409 37959 ft 421 kts 289°
2026-04-26 11:06 22.40760 -72.76000 37962 ft 421 kts 289°
2026-04-26 11:07 22.43422 -72.81643 37961 ft 421 kts 289°
2026-04-26 11:07 22.46065 -72.87252 37960 ft 421 kts 289°
2026-04-26 11:08 22.48723 -72.92901 37958 ft 421 kts 289°
2026-04-26 11:08 22.51376 -72.98550 37985 ft 422 kts 289°
2026-04-26 11:09 22.54037 -73.04226 37957 ft 424 kts 289°
2026-04-26 11:09 22.56703 -73.09917 37954 ft 424 kts 289°
2026-04-26 11:10 22.59368 -73.15609 37957 ft 424 kts 289°
2026-04-26 11:10 22.62033 -73.21308 37958 ft 424 kts 289°
2026-04-26 11:11 22.64694 -73.27007 37957 ft 424 kts 289°
2026-04-26 11:11 22.67336 -73.32674 37959 ft 424 kts 290°
2026-04-26 11:12 22.70001 -73.38397 37954 ft 426 kts 290°
2026-04-26 11:12 22.72669 -73.44128 37955 ft 426 kts 290°
2026-04-26 11:13 22.75337 -73.49867 37958 ft 426 kts 290°
2026-04-26 11:13 22.78002 -73.55607 37958 ft 426 kts 290°
2026-04-26 11:14 22.80662 -73.61344 37958 ft 426 kts 290°
2026-04-26 11:14 22.82876 -73.66123 37969 ft 426 kts 290°
2026-04-26 11:15 22.85968 -73.72808 37957 ft 427 kts 290°
2026-04-26 11:15 22.88634 -73.78578 37958 ft 427 kts 290°
2026-04-26 11:16 22.91296 -73.84345 37989 ft 428 kts 291°
2026-04-26 11:16 22.93970 -73.90149 37957 ft 432 kts 291°
2026-04-26 11:17 22.96665 -73.96001 37957 ft 434 kts 291°
2026-04-26 11:17 22.99365 -74.01867 37962 ft 434 kts 291°
2026-04-26 11:18 23.02049 -74.07711 37957 ft 436 kts 291°
2026-04-26 11:18 23.04756 -74.13610 37957 ft 437 kts 291°
2026-04-26 11:19 23.07468 -74.19527 37958 ft 437 kts 291°
2026-04-26 11:19 23.10176 -74.25444 37957 ft 437 kts 291°
2026-04-26 11:20 23.12425 -74.30361 37958 ft 437 kts 291°
2026-04-26 11:20 23.15562 -74.37233 37963 ft 437 kts 292°
2026-04-26 11:21 23.18268 -74.43170 37960 ft 440 kts 292°
2026-04-26 11:21 23.20983 -74.49130 37961 ft 440 kts 292°
2026-04-26 11:22 23.23697 -74.55095 37959 ft 440 kts 292°
2026-04-26 11:22 23.26414 -74.61074 37960 ft 440 kts 292°
2026-04-26 11:23 23.29126 -74.67051 37959 ft 440 kts 292°
2026-04-26 11:23 23.31834 -74.73025 37968 ft 441 kts 292°
2026-04-26 11:24 23.34537 -74.79000 37948 ft 443 kts 292°
2026-04-26 11:24 23.37262 -74.85028 37963 ft 444 kts 292°
2026-04-26 11:25 23.39418 -74.90136 37969 ft 441 kts 287°
2026-04-26 11:25 23.41404 -74.96402 37970 ft 441 kts 285°
2026-04-26 11:26 23.43346 -75.02726 37951 ft 441 kts 285°
2026-04-26 11:26 23.45279 -75.09062 37973 ft 441 kts 286°
2026-04-26 11:27 23.47212 -75.15414 37964 ft 442 kts 286°
2026-04-26 11:27 23.49145 -75.21778 37975 ft 443 kts 286°
2026-04-26 11:28 23.51077 -75.28152 37960 ft 443 kts 286°
2026-04-26 11:28 23.53004 -75.34519 37960 ft 443 kts 286°
2026-04-26 11:29 23.54931 -75.40894 37962 ft 443 kts 286°
2026-04-26 11:29 23.56854 -75.47271 37959 ft 443 kts 286°
2026-04-26 11:30 23.58453 -75.52580 37969 ft 444 kts 286°
2026-04-26 11:30 23.60704 -75.60063 37965 ft 444 kts 286°
2026-04-26 11:31 23.62627 -75.66470 37966 ft 444 kts 286°
2026-04-26 11:31 23.64545 -75.72871 37963 ft 444 kts 286°
2026-04-26 11:32 23.66450 -75.79239 37963 ft 444 kts 286°
2026-04-26 11:32 23.68367 -75.85657 37964 ft 445 kts 287°
2026-04-26 11:33 23.70281 -75.92076 37967 ft 445 kts 287°
2026-04-26 11:33 23.72194 -75.98502 37965 ft 445 kts 287°
2026-04-26 11:34 23.74103 -76.04926 37974 ft 445 kts 286°
2026-04-26 11:34 23.76009 -76.11349 37979 ft 445 kts 286°
2026-04-26 11:35 23.77919 -76.17799 37970 ft 447 kts 287°
2026-04-26 11:35 23.79829 -76.24260 37967 ft 447 kts 287°
2026-04-26 11:36 23.81735 -76.30717 37967 ft 447 kts 287°
2026-04-26 11:36 23.83627 -76.37135 37969 ft 447 kts 286°
2026-04-26 11:37 23.85528 -76.43599 37971 ft 447 kts 286°
2026-04-26 11:37 23.87426 -76.50061 37973 ft 447 kts 286°
2026-04-26 11:38 23.89322 -76.56530 37973 ft 446 kts 287°
2026-04-26 11:38 23.91211 -76.62984 37976 ft 446 kts 287°
2026-04-26 11:39 23.93097 -76.69437 37973 ft 446 kts 287°
2026-04-26 11:39 23.94979 -76.75892 37973 ft 446 kts 286°
2026-04-26 11:40 23.96862 -76.82360 37969 ft 446 kts 286°
2026-04-26 11:40 23.98740 -76.88822 37971 ft 446 kts 287°
2026-04-26 11:42 24.06201 -77.14602 37972 ft 445 kts 287°
2026-04-26 11:43 24.08062 -77.21063 37969 ft 445 kts 287°
2026-04-26 11:43 24.09920 -77.27522 37971 ft 444 kts 287°
2026-04-26 11:44 24.11758 -77.33923 37976 ft 443 kts 287°
2026-04-26 11:44 24.13605 -77.40365 37975 ft 443 kts 287°
2026-04-26 11:45 24.15446 -77.46802 37974 ft 443 kts 287°
2026-04-26 11:45 24.17287 -77.53248 37977 ft 443 kts 287°
2026-04-26 11:46 24.19127 -77.59700 37976 ft 443 kts 287°
2026-04-26 11:46 24.20958 -77.66132 37978 ft 441 kts 287°
2026-04-26 11:47 24.22768 -77.72505 37981 ft 440 kts 287°
2026-04-26 11:47 24.24587 -77.78916 37977 ft 440 kts 287°
2026-04-26 11:48 24.26446 -77.85314 37976 ft 441 kts 290°
2026-04-26 11:48 24.29344 -77.91224 37947 ft 437 kts 302°
2026-04-26 11:49 24.31026 -77.93962 37618 ft 429 kts 302°
2026-04-26 11:49 24.32691 -77.96649 37188 ft 423 kts 302°
2026-04-26 11:49 24.34335 -77.99309 36752 ft 418 kts 302°
2026-04-26 11:49 24.35961 -78.01949 36330 ft 416 kts 302°
2026-04-26 11:50 24.37583 -78.04586 35907 ft 418 kts 302°
2026-04-26 11:50 24.39190 -78.07202 35498 ft 420 kts 302°
2026-04-26 11:50 24.40827 -78.09870 35091 ft 422 kts 302°
2026-04-26 11:50 24.42471 -78.12551 34692 ft 424 kts 302°
2026-04-26 11:51 24.44123 -78.15247 34296 ft 426 kts 302°
2026-04-26 11:51 24.45777 -78.17947 33885 ft 428 kts 302°
2026-04-26 11:51 24.47441 -78.20664 33428 ft 429 kts 302°
2026-04-26 11:51 24.49109 -78.23390 32992 ft 431 kts 302°
2026-04-26 11:52 24.50786 -78.26132 32556 ft 433 kts 303°
2026-04-26 11:52 24.51922 -78.27991 32273 ft 435 kts 303°
2026-04-26 11:52 24.54161 -78.31657 31713 ft 437 kts 303°
2026-04-26 11:52 24.55859 -78.34438 31311 ft 439 kts 302°
2026-04-26 11:53 24.57568 -78.37239 30918 ft 443 kts 302°
2026-04-26 11:53 24.59293 -78.40068 30656 ft 446 kts 302°
2026-04-26 11:53 24.61023 -78.42907 30418 ft 448 kts 302°
2026-04-26 11:54 24.64493 -78.48605 29918 ft 448 kts 302°
2026-04-26 11:54 24.66222 -78.51448 29655 ft 447 kts 302°
2026-04-26 11:54 24.67946 -78.54283 29388 ft 445 kts 302°
2026-04-26 11:54 24.69638 -78.57067 29118 ft 443 kts 302°
2026-04-26 11:55 24.71348 -78.59882 28854 ft 441 kts 302°
2026-04-26 11:55 24.73044 -78.62678 28594 ft 439 kts 302°
2026-04-26 11:55 24.74738 -78.65471 28334 ft 437 kts 302°
2026-04-26 11:55 24.76420 -78.68245 28072 ft 435 kts 302°
2026-04-26 11:56 24.78091 -78.71004 27987 ft 430 kts 303°
2026-04-26 11:56 24.79739 -78.73727 27989 ft 425 kts 303°
2026-04-26 11:56 24.81372 -78.76426 27973 ft 423 kts 303°
2026-04-26 11:56 24.83000 -78.79117 27973 ft 423 kts 303°
2026-04-26 11:57 24.84628 -78.81811 27976 ft 423 kts 303°
2026-04-26 11:57 24.86259 -78.84510 27919 ft 423 kts 303°
2026-04-26 11:57 24.87884 -78.87200 27531 ft 419 kts 303°
2026-04-26 11:57 24.89483 -78.89850 27044 ft 411 kts 303°
2026-04-26 11:58 24.91033 -78.92420 26563 ft 404 kts 303°
2026-04-26 11:58 24.92596 -78.95013 26099 ft 397 kts 303°
2026-04-26 11:58 24.94093 -78.97497 25637 ft 391 kts 303°
2026-04-26 11:58 24.95588 -78.99979 25173 ft 386 kts 303°
2026-04-26 11:59 24.97060 -79.02426 24714 ft 381 kts 303°
2026-04-26 11:59 24.98516 -79.04847 24266 ft 377 kts 303°
2026-04-26 11:59 24.99963 -79.07255 23812 ft 376 kts 304°
2026-04-26 11:59 25.01400 -79.09646 23343 ft 372 kts 304°
2026-04-26 12:00 25.02823 -79.12017 22809 ft 369 kts 304°
2026-04-26 12:00 25.04231 -79.14368 22289 ft 366 kts 304°
2026-04-26 12:00 25.05636 -79.16707 21785 ft 364 kts 304°
2026-04-26 12:00 25.07027 -79.19024 21285 ft 361 kts 304°
2026-04-26 12:01 25.08413 -79.21336 20798 ft 359 kts 304°
2026-04-26 12:01 25.09789 -79.23630 20319 ft 358 kts 303°
2026-04-26 12:01 25.11156 -79.25912 19846 ft 356 kts 303°
2026-04-26 12:01 25.12516 -79.28184 19377 ft 354 kts 303°
2026-04-26 12:02 25.13873 -79.30453 18915 ft 352 kts 303°
2026-04-26 12:02 25.14764 -79.31942 18620 ft 351 kts 303°
2026-04-26 12:02 25.16556 -79.34940 17969 ft 349 kts 303°
2026-04-26 12:02 25.17872 -79.37142 17462 ft 347 kts 303°
2026-04-26 12:03 25.19213 -79.39389 16946 ft 345 kts 303°
2026-04-26 12:03 25.20530 -79.41595 16447 ft 343 kts 303°
2026-04-26 12:03 25.21840 -79.43788 15947 ft 341 kts 303°
2026-04-26 12:03 25.23122 -79.45938 15474 ft 338 kts 303°
2026-04-26 12:04 25.24408 -79.48097 15002 ft 335 kts 303°
2026-04-26 12:04 25.25687 -79.50244 14518 ft 334 kts 303°
2026-04-26 12:04 25.26961 -79.52384 14064 ft 332 kts 303°
2026-04-26 12:04 25.28230 -79.54516 13587 ft 331 kts 303°
2026-04-26 12:05 25.29495 -79.56642 13077 ft 330 kts 303°
2026-04-26 12:05 25.30753 -79.58758 12571 ft 328 kts 303°
2026-04-26 12:05 25.32002 -79.60859 12154 ft 325 kts 303°
2026-04-26 12:05 25.33239 -79.62941 12019 ft 324 kts 303°
2026-04-26 12:06 25.34478 -79.65027 12010 ft 325 kts 303°
2026-04-26 12:06 25.35717 -79.67115 12009 ft 325 kts 303°
2026-04-26 12:06 25.36955 -79.69201 12009 ft 325 kts 303°
2026-04-26 12:06 25.38193 -79.71289 12007 ft 325 kts 303°
2026-04-26 12:07 25.39436 -79.73376 12006 ft 325 kts 304°
2026-04-26 12:07 25.40735 -79.75416 12006 ft 324 kts 306°
2026-04-26 12:07 25.42055 -79.77440 12003 ft 324 kts 306°
2026-04-26 12:07 25.43373 -79.79469 12004 ft 324 kts 305°
2026-04-26 12:08 25.44685 -79.81499 12005 ft 324 kts 305°
2026-04-26 12:08 25.45990 -79.83527 12007 ft 323 kts 305°
2026-04-26 12:08 25.46854 -79.84871 12007 ft 323 kts 305°
2026-04-26 12:08 25.48578 -79.87559 11853 ft 323 kts 305°
2026-04-26 12:09 25.49875 -79.89587 11606 ft 322 kts 305°
2026-04-26 12:09 25.51171 -79.91607 11373 ft 321 kts 305°
2026-04-26 12:09 25.52462 -79.93622 11126 ft 321 kts 305°
2026-04-26 12:09 25.53332 -79.94981 10978 ft 316 kts 305°
2026-04-26 12:10 25.54566 -79.96908 10756 ft 306 kts 305°
2026-04-26 12:10 25.55780 -79.98806 10528 ft 297 kts 305°
2026-04-26 12:10 25.56960 -80.00652 10302 ft 290 kts 305°
2026-04-26 12:10 25.58109 -80.02451 10071 ft 283 kts 304°
2026-04-26 12:11 25.59243 -80.04230 9843 ft 281 kts 304°
2026-04-26 12:11 25.60374 -80.06004 9578 ft 281 kts 304°
2026-04-26 12:11 25.61504 -80.07773 9339 ft 281 kts 304°
2026-04-26 12:11 25.62631 -80.09539 9088 ft 281 kts 304°
2026-04-26 12:12 25.63759 -80.11306 9012 ft 281 kts 304°
2026-04-26 12:12 25.64887 -80.13081 8839 ft 282 kts 304°
2026-04-26 12:12 25.65867 -80.14955 8529 ft 280 kts 296°
2026-04-26 12:12 25.66431 -80.16241 8333 ft 280 kts 295°
2026-04-26 12:13 25.67537 -80.18855 7940 ft 280 kts 294°
2026-04-26 12:13 25.68362 -80.20808 7641 ft 280 kts 294°
2026-04-26 12:13 25.69187 -80.22758 7360 ft 280 kts 294°
2026-04-26 12:13 25.70015 -80.24713 7076 ft 279 kts 294°
2026-04-26 12:14 25.70816 -80.26674 6794 ft 279 kts 290°
2026-04-26 12:14 25.71196 -80.28766 6508 ft 278 kts 271°
2026-04-26 12:14 25.71153 -80.30904 6220 ft 276 kts 266°
2026-04-26 12:14 25.71040 -80.33011 5922 ft 271 kts 265°
2026-04-26 12:15 25.70928 -80.35060 5641 ft 267 kts 266°
2026-04-26 12:15 25.70823 -80.37099 5353 ft 264 kts 266°
2026-04-26 12:15 25.70721 -80.39125 5099 ft 262 kts 266°
2026-04-26 12:15 25.70624 -80.41113 5021 ft 252 kts 266°
2026-04-26 12:16 25.70527 -80.43009 5021 ft 242 kts 266°
2026-04-26 12:16 25.70431 -80.44862 5019 ft 241 kts 266°
2026-04-26 12:16 25.70336 -80.46718 4994 ft 241 kts 266°
2026-04-26 12:16 25.70449 -80.48563 4777 ft 242 kts 287°
2026-04-26 12:17 25.71325 -80.50135 4467 ft 242 kts 316°
2026-04-26 12:17 25.72675 -80.51142 4262 ft 226 kts 332°
2026-04-26 12:17 25.74155 -80.51610 3914 ft 219 kts 354°
2026-04-26 12:17 25.75616 -80.51339 3561 ft 212 kts 25°
2026-04-26 12:18 25.76750 -80.50348 3223 ft 206 kts 48°
2026-04-26 12:18 25.77537 -80.49076 3042 ft 194 kts 65°
2026-04-26 12:18 25.77930 -80.47656 2897 ft 192 kts 83°
2026-04-26 12:18 25.78017 -80.46195 2657 ft 187 kts 90°
2026-04-26 12:19 25.78056 -80.44795 2410 ft 175 kts 89°
2026-04-26 12:19 25.78115 -80.43479 2164 ft 167 kts 89°
2026-04-26 12:19 25.78169 -80.42208 1953 ft 163 kts 90°
2026-04-26 12:19 25.78214 -80.40963 1736 ft 161 kts 90°
2026-04-26 12:20 25.78253 -80.39740 1500 ft 158 kts 90°
2026-04-26 12:20 25.78320 -80.38516 1305 ft 159 kts 88°
2026-04-26 12:20 25.78389 -80.37311 1149 ft 158 kts 89°
2026-04-26 12:20 25.78449 -80.36083 928 ft 157 kts 90°
2026-04-26 12:21 25.78488 -80.34882 730 ft 157 kts 89°
2026-04-26 12:21 25.78525 -80.33681 541 ft 152 kts 88°
2026-04-26 12:21 25.78577 -80.32519 321 ft 149 kts 89°
2026-04-26 12:21 25.78620 -80.31414 106 ft 138 kts 89°
2026-04-26 12:22 25.78653 -80.30411 22 ft 114 kts 88°
2026-04-26 12:22 25.78686 -80.29673 26 ft 79 kts 87°
2026-04-26 12:22 25.78707 -80.29155 27 ft 58 kts 87°
2026-04-26 12:22 25.78725 -80.28735 27 ft 50 kts 87°
2026-04-26 12:23 25.78741 -80.28369 22 ft 45 kts 87°
2026-04-26 12:23 25.78753 -80.28061 22 ft 38 kts 87°
2026-04-26 12:23 25.78763 -80.27848 25 ft 23 kts 87°
2026-04-26 12:23 25.78784 -80.27691 27 ft 16 kts 51°
2026-04-26 12:24 25.78856 -80.27708 24 ft 0 kts 307°
2026-04-26 12:24 25.78857 -80.27709 24 ft 0 kts 307°
2026-04-26 12:25 25.78867 -80.27725 25 ft 4 kts 302°
2026-04-26 12:25 25.78874 -80.27765 23 ft 6 kts 274°
2026-04-26 12:25 25.78888 -80.27818 26 ft 8 kts 302°
2026-04-26 12:25 25.78929 -80.27857 28 ft 8 kts 308°
2026-04-26 12:26 25.78939 -80.27917 26 ft 9 kts 273°
2026-04-26 12:26 25.78931 -80.27989 27 ft 11 kts 245°
2026-04-26 12:26 25.78905 -80.28082 29 ft 15 kts 262°
2026-04-26 12:26 25.78893 -80.28216 24 ft 20 kts 266°
2026-04-26 12:27 25.78885 -80.28381 27 ft 22 kts 267°
2026-04-26 12:27 25.78878 -80.28565 22 ft 26 kts 267°
2026-04-26 12:27 25.78869 -80.28772 18 ft 23 kts 267°
2026-04-26 12:27 25.78845 -80.28937 21 ft 21 kts 256°
2026-04-26 12:28 25.78821 -80.29107 20 ft 24 kts 268°
2026-04-26 12:28 25.78813 -80.29301 21 ft 26 kts 267°
2026-04-26 12:28 25.78805 -80.29486 23 ft 25 kts 267°
2026-04-26 12:28 25.78798 -80.29674 25 ft 24 kts 267°
2026-04-26 12:29 25.78790 -80.29861 23 ft 24 kts 267°
2026-04-26 12:29 25.78783 -80.30024 27 ft 19 kts 267°
2026-04-26 12:29 25.78949 -80.30122 27 ft 14 kts 358°
2026-04-26 12:30 25.78996 -80.30087 30 ft 8 kts 60°
2026-04-26 12:30 25.79008 -80.30061 28 ft 0 kts 64°